Temp
-8 -9 -8 -8 -7 -8 -8 -8 -7 -7 -7 -7 -7 -7 -7 -7 -7 -7 -7 -8 -7 -7 -7 -7 -7 -7 -7 -7 -7 -7 -6 -6 -6 -7 -7 -7 -7 -7 -7 -7 -7 -7 -7 -7
-8 -9 -8 -8 -8 -8 -8 -8 -8 -7 -7 -7 -7 -7 -8 -8 -8 -7 -7 -7 -7 -7 -7 -7 -7 -8 -7 -7 -7 -7 -7 -6 -6 -7 -7 -7 -7 -7 -7 -7 -7 -7 -7 -7
-8 -8 -8 -8 -8 -8 -9 -9 -8 -8 -7 -7 -7 -7 -7 -8 -8 -8 -8 -7 -7 -7 -7 -7 -7 -7 -8 -7 -7 -7 -7 -6 -7 -7 -7 -7 -7 -6 -6 -6 -6 -7 -7 -7
-8 -8 -8 -8 -9 -9 -9 -9 -9 -9 -9 -8 -8 -8 -8 -7 -8 -8 -8 -8 -7 -7 -7 -7 -7 -7 -7 -7 -7 -7 -7 -7 -7 -7 -7 -7 -7 -6 -7 -6 -7 -7 -7 -7
-9 -9 -9 -9 -10 -9 -10 -10 -10 -9 -9 -9 -9 -8 -8 -7 -7 -7 -8 -8 -8 -7 -6 -6 -7 -7 -7 -8 -7 -7 -7 -7 -7 -7 -7 -7 -7 -6 -6 -7 -7 -7 -7 -7
-9 -9 -10 -10 -10 -10 -10 -10 -10 -10 -9 -10 -10 -9 -9 -9 -7 -7 -7 -8 -8 -8 -7 -6 -6 -6 -6 -7 -7 -7 -7 -7 -7 -7 -7 -7 -6 -6 -6 -6 -6 -6 -7 -7
-9 -10 -11 -10 -11 -10 -10 -11 -10 -10 -10 -10 -11 -9 -9 -9 -9 -8 -7 -7 -7 -8 -8 -7 -8 -7 -7 -7 -7 -7 -7 -7 -7 -7 -7 -7 -6 -6 -6 -7 -6 -6 -7 -7
-9 -10 -10 -10 -10 -12 -11 -10 -10 -10 -9 -9 -10 -9 -9 -9 -9 -8 -8 -8 -7 -7 -7 -8 -7 -7 -7 -6 -6 -6 -7 -7 -7 -7 -7 -8 -7 -7 -7 -7 -6 -6 -7 -7
-10 -11 -11 -11 -11 -11 -11 -11 -10 -10 -9 -8 -8 -9 -9 -9 -8 -9 -9 -8 -8 -8 -7 -7 -7 -7 -6 -6 -6 -6 -6 -7 -7 -6 -6 -7 -7 -7 -7 -6 -7 -7 -7 -7
-11 -12 -12 -11 -11 -11 -11 -11 -10 -10 -9 -9 -9 -9 -9 -9 -8 -9 -9 -9 -9 -8 -8 -7 -7 -8 -7 -6 -7 -7 -6 -7 -7 -7 -6 -7 -7 -7 -7 -7 -7 -7 -7 -6
-11 -11 -11 -11 -11 -11 -11 -11 -11 -11 -10 -10 -10 -9 -10 -9 -9 -9 -9 -9 -9 -9 -8 -8 -7 -7 -7 -7 -7 -7 -6 -7 -7 -7 -7 -7 -6 -7 -7 -7 -7 -7 -7 -6
-11 -12 -11 -12 -11 -11 -11 -11 -11 -11 -11 -11 -11 -10 -10 -10 -10 -10 -10 -9 -9 -8 -8 -8 -8 -8 -7 -8 -7 -7 -7 -7 -7 -8 -7 -7 -7 -7 -7 -7 -7 -7 -7 -7
-11 -11 -11 -11 -11 -11 -11 -12 -12 -12 -12 -11 -11 -11 -11 -10 -10 -10 -10 -9 -9 -9 -9 -8 -7 -7 -7 -7 -7 -7 -7 -7 -7 -7 -7 -7 -7 -7 -6 -6 -6 -7 -7 -7
-11 -12 -12 -11 -11 -11 -12 -12 -11 -11 -12 -11 -11 -11 -11 -10 -10 -10 -10 -10 -9 -9 -8 -8 -8 -7 -6 -7 -7 -6 -6 -7 -7 -7 -7 -7 -7 -7 -7 -6 -6 -6 -7 -7
-12 -12 -12 -11 -11 -11 -12 -12 -12 -11 -11 -11 -11 -10 -11 -10 -10 -10 -10 -10 -9 -9 -9 -8 -8 -8 -7 -7 -7 -7 -6 -7 -7 -6 -7 -7 -7 -7 -7 -6 -6 -6 -6 -6
-12 -12 -12 -12 -12 -12 -11 -12 -12 -11 -11 -10 -10 -9 -11 -10 -10 -10 -10 -10 -10 -9 -8 -8 -8 -8 -7 -7 -7 -6 -6 -6 -7 -7 -7 -7 -7 -7 -7 -7 -7 -7 -6 -6
-12 -12 -12 -11 -11 -11 -10 -12 -11 -11 -11 -10 -10 -10 -10 -10 -10 -10 -10 -10 -9 -9 -9 -8 -8 -8 -8 -7 -7 -7 -7 -7 -7 -7 -7 -7 -7 -7 -7 -7 -7 -7 -7 -7
-12 -13 -12 -11 -11 -10 -12 -12 -12 -11 -11 -11 -10 -10 -10 -10 -10 -10 -10 -10 -10 -9 -9 -9 -9 -9 -8 -8 -8 -8 -7 -7 -7 -6 -7 -7 -7 -7 -7 -7 -7 -7 -7 -7
-13 -13 -12 -12 -12 -11 -12 -12 -12 -12 -12 -11 -11 -10 -10 -11 -11 -11 -10 -10 -10 -9 -9 -9 -9 -9 -9 -8 -8 -7 -7 -7 -7 -7 -6 -7 -7 -7 -6 -6 -7 -7 -7 -7
-13 -13 -12 -12 -12 -12 -12 -12 -11 -11 -11 -11 -12 -12 -12 -11 -11 -11 -11 -10 -10 -10 -9 -9 -8 -8 -8 -8 -8 -8 -7 -7 -7 -7 -7 -7 -7 -7 -7 -7 -6 -7 -7 -7
-13 -12 -13 -13 -13 -12 -12 -11 -11 -11 -11 -11 -12 -12 -12 -12 -12 -12 -11 -11 -10 -10 -10 -9 -9 -9 -8 -7 -7 -8 -8 -8 -7 -7 -7 -6 -7 -7 -7 -7 -7 -7 -7 -7
-13 -13 -13 -13 -13 -12 -12 -12 -12 -11 -12 -12 -12 -12 -12 -12 -12 -12 -11 -10 -11 -10 -9 -9 -9 -9 -9 -7 -8 -8 -8 -8 -7 -7 -7 -7 -7 -7 -7 -7 -7 -7 -7 -7
-13 -13 -13 -13 -13 -12 -12 -12 -12 -12 -12 -12 -12 -12 -12 -12 -11 -11 -11 -11 -10 -10 -10 -10 -10 -9 -9 -8 -8 -8 -8 -9 -9 -8 -8 -7 -7 -7 -7 -7 -8 -7 -7 -7
-13 -13 -13 -13 -13 -13 -12 -12 -12 -12 -12 -12 -12 -12 -12 -11 -12 -12 -12 -11 -10 -10 -11 -10 -10 -10 -9 -9 -9 -9 -9 -9 -9 -9 -8 -9 -8 -8 -7 -8 -8 -8 -7 -7
-13 -13 -14 -13 -13 -13 -12 -12 -12 -12 -11 -11 -11 -11 -11 -11 -12 -12 -11 -11 -11 -10 -10 -10 -10 -10 -10 -10 -10 -10 -10 -10 -10 -10 -10 -9 -9 -9 -8 -8 -8 -8 -8 -8
-13 -13 -14 -14 -14 -13 -12 -12 -12 -11 -11 -11 -11 -11 -11 -11 -11 -13 -12 -11 -11 -11 -12 -12 -12 -11 -11 -11 -11 -10 -10 -9 -9 -9 -9 -9 -9 -9 -9 -9 -10 -10 -10 -10
Height
5866 5868 5869 5870 5872 5875 5877 5879 5880 5880 5881 5882 5881 5881 5880 5880 5881 5880 5879 5881 5883 5884 5884 5885 5887 5886 5887 5888 5889 5891 5894 5896 5898 5900 5903 5906 5908 5911 5914 5916 5917 5918 5921 5921
5864 5865 5866 5869 5871 5874 5876 5878 5879 5881 5881 5882 5883 5882 5881 5881 5880 5879 5877 5879 5881 5883 5885 5886 5887 5887 5886 5889 5891 5892 5894 5896 5898 5900 5903 5905 5908 5910 5913 5915 5917 5920 5922 5922
5860 5861 5864 5867 5870 5872 5874 5876 5878 5880 5880 5881 5881 5882 5882 5881 5880 5880 5879 5878 5881 5881 5883 5886 5887 5888 5888 5888 5892 5894 5895 5897 5899 5901 5903 5905 5908 5910 5913 5915 5918 5920 5922 5922
5856 5858 5861 5866 5868 5870 5872 5873 5876 5876 5878 5880 5880 5881 5882 5881 5880 5882 5880 5879 5879 5880 5882 5883 5886 5888 5889 5888 5891 5893 5895 5898 5898 5901 5904 5905 5907 5909 5912 5914 5917 5919 5921 5921
5856 5857 5860 5864 5867 5868 5869 5870 5872 5873 5875 5877 5877 5879 5877 5879 5879 5879 5881 5880 5878 5880 5882 5882 5882 5885 5888 5889 5891 5893 5894 5896 5899 5901 5903 5905 5907 5910 5912 5914 5916 5917 5919 5919
5854 5856 5858 5861 5863 5865 5867 5868 5869 5870 5871 5874 5872 5875 5874 5875 5877 5876 5878 5880 5879 5878 5880 5881 5882 5885 5887 5888 5890 5892 5893 5896 5898 5901 5903 5905 5907 5910 5912 5913 5914 5916 5917 5919
5853 5855 5856 5858 5860 5862 5865 5866 5867 5868 5868 5871 5868 5870 5873 5872 5873 5874 5874 5876 5879 5879 5878 5879 5880 5883 5885 5887 5889 5890 5892 5894 5897 5899 5901 5903 5905 5907 5909 5911 5913 5915 5916 5919
5852 5855 5855 5857 5859 5861 5862 5864 5865 5864 5865 5867 5866 5867 5869 5868 5869 5870 5870 5871 5872 5875 5877 5876 5877 5879 5881 5883 5886 5888 5889 5892 5894 5896 5898 5902 5904 5906 5909 5911 5912 5913 5915 5916
5851 5852 5854 5856 5857 5860 5861 5861 5861 5861 5861 5862 5863 5864 5865 5865 5866 5865 5866 5866 5868 5869 5870 5872 5872 5874 5875 5877 5881 5885 5887 5888 5892 5893 5895 5899 5902 5904 5905 5908 5910 5912 5913 5914
5851 5853 5854 5855 5856 5857 5858 5859 5859 5858 5857 5857 5857 5859 5860 5861 5862 5862 5861 5862 5863 5864 5865 5867 5868 5870 5871 5872 5875 5879 5884 5885 5887 5891 5893 5895 5898 5902 5904 5906 5909 5911 5912 5913
5849 5851 5853 5853 5853 5854 5854 5853 5854 5854 5853 5853 5853 5854 5855 5856 5857 5857 5857 5857 5858 5859 5860 5862 5863 5865 5866 5869 5871 5874 5878 5881 5884 5888 5890 5892 5895 5898 5902 5903 5905 5908 5910 5912
5846 5847 5848 5849 5849 5849 5849 5849 5849 5849 5849 5848 5848 5849 5850 5850 5851 5851 5852 5851 5852 5854 5855 5857 5859 5860 5861 5863 5867 5870 5872 5876 5879 5882 5886 5888 5891 5894 5896 5898 5901 5904 5907 5908
5841 5843 5843 5844 5845 5844 5843 5843 5843 5842 5842 5842 5842 5844 5844 5844 5843 5845 5845 5846 5846 5848 5850 5851 5853 5855 5856 5858 5861 5864 5868 5871 5874 5876 5880 5883 5886 5889 5891 5894 5896 5899 5902 5905
5836 5836 5837 5838 5838 5838 5837 5837 5836 5836 5834 5833 5834 5835 5837 5836 5836 5837 5838 5839 5840 5841 5843 5845 5847 5849 5852 5852 5854 5857 5861 5864 5867 5871 5875 5878 5881 5884 5886 5889 5892 5894 5897 5900
5831 5831 5831 5832 5832 5832 5831 5830 5830 5829 5827 5826 5827 5826 5829 5828 5829 5829 5830 5831 5833 5834 5836 5837 5839 5841 5842 5845 5846 5849 5853 5856 5859 5864 5868 5873 5876 5879 5881 5883 5886 5888 5891 5894
5826 5827 5827 5827 5827 5826 5825 5824 5820 5820 5819 5817 5816 5817 5817 5818 5820 5821 5822 5824 5825 5826 5828 5830 5831 5833 5834 5837 5838 5840 5845 5849 5853 5858 5863 5864 5865 5871 5874 5877 5880 5884 5886 5890
5821 5822 5823 5823 5821 5820 5820 5815 5813 5813 5811 5809 5809 5809 5808 5809 5810 5812 5814 5816 5817 5819 5820 5822 5823 5826 5828 5830 5831 5835 5839 5843 5848 5852 5856 5860 5862 5864 5867 5871 5873 5876 5880 5883
5816 5816 5817 5816 5815 5813 5813 5810 5808 5807 5806 5803 5802 5801 5801 5802 5803 5805 5807 5808 5809 5811 5813 5815 5816 5819 5822 5823 5827 5830 5833 5837 5841 5846 5850 5853 5856 5859 5862 5865 5867 5869 5872 5875
5811 5811 5812 5811 5810 5808 5806 5804 5802 5801 5802 5796 5796 5794 5794 5795 5797 5798 5800 5801 5802 5805 5807 5808 5809 5812 5816 5816 5819 5823 5826 5829 5833 5838 5842 5844 5849 5852 5856 5858 5860 5862 5864 5867
5806 5807 5808 5806 5803 5802 5800 5797 5795 5793 5795 5792 5792 5790 5790 5791 5793 5795 5794 5796 5797 5799 5801 5802 5803 5808 5810 5811 5815 5816 5820 5821 5823 5831 5834 5837 5840 5845 5846 5850 5852 5855 5857 5860
5801 5801 5801 5799 5797 5796 5794 5792 5790 5790 5793 5788 5788 5788 5787 5788 5789 5789 5790 5791 5792 5793 5795 5797 5800 5802 5804 5808 5809 5811 5814 5818 5821 5824 5828 5831 5834 5837 5840 5842 5843 5846 5849 5851
5796 5796 5796 5795 5792 5791 5789 5787 5786 5785 5784 5784 5784 5784 5783 5783 5784 5785 5786 5786 5788 5789 5791 5791 5795 5799 5800 5801 5802 5806 5809 5813 5814 5816 5820 5824 5825 5831 5832 5834 5835 5838 5840 5843
5790 5790 5789 5790 5787 5785 5785 5784 5782 5781 5781 5781 5782 5781 5780 5780 5779 5780 5781 5782 5783 5785 5787 5785 5791 5796 5798 5798 5801 5801 5804 5808 5810 5812 5816 5818 5822 5824 5824 5826 5828 5831 5833 5834
5784 5784 5784 5784 5782 5780 5781 5780 5779 5779 5779 5778 5778 5779 5778 5777 5777 5777 5777 5777 5779 5777 5784 5785 5788 5793 5794 5796 5800 5800 5802 5805 5809 5810 5812 5815 5816 5817 5819 5821 5823 5824 5825 5827
5780 5780 5780 5779 5778 5777 5777 5778 5777 5777 5777 5777 5777 5777 5777 5777 5776 5773 5771 5773 5776 5779 5781 5785 5786 5789 5792 5793 5794 5796 5801 5805 5806 5809 5810 5811 5812 5813 5814 5816 5815 5817 5819 5820
5776 5776 5777 5776 5775 5774 5774 5775 5775 5776 5776 5775 5776 5776 5775 5776 5776 5776 5773 5772 5774 5776 5782 5787 5790 5793 5795 5796 5798 5800 5802 5803 5804 5806 5807 5806 5808 5809 5811 5813 5813 5813 5813 5814
Wind_Speed
9 9 11 14 14 14 14 11 12 16 11 9 8 7 10 5 7 6 5 9 3 9 10 8 6 9 11 8 9 14 14 15 17 15 18 17 14 13 10 11 10 4 7 3
11 14 14 13 12 15 14 13 11 12 8 4 6 7 6 8 8 7 5 13 9 8 9 11 9 10 11 11 10 15 17 13 17 21 17 17 15 12 11 12 8 8 8 5
15 19 17 14 14 16 16 17 16 14 12 10 9 7 10 10 11 6 2 10 11 8 12 14 13 10 11 11 11 14 17 15 14 20 16 14 14 12 12 8 9 8 8 8
19 19 16 13 16 17 18 19 15 18 14 11 13 12 10 12 11 6 9 9 17 7 12 13 14 15 14 14 14 14 13 15 11 17 15 16 14 13 12 10 7 10 10 9
12 13 13 9 14 18 20 16 16 17 16 14 14 13 16 14 14 10 6 11 9 15 15 12 12 17 17 17 16 15 14 14 13 13 12 12 12 12 11 10 11 11 10 9
11 9 8 8 12 18 18 16 15 15 14 11 21 18 17 17 17 18 13 9 10 13 15 15 14 12 15 18 18 17 17 13 12 14 14 14 12 10 13 11 10 9 9 7
9 9 8 8 9 10 8 11 16 16 15 13 20 18 18 18 17 17 19 17 13 12 15 18 17 15 14 16 20 20 17 18 14 11 12 11 9 9 8 10 9 9 8 7
7 10 10 9 9 8 12 11 14 17 15 17 22 19 17 21 22 22 23 24 22 20 18 19 21 19 17 18 21 22 20 18 18 15 14 13 13 14 12 13 11 10 8 8
10 10 8 10 8 12 11 13 15 16 15 16 20 19 19 21 19 16 19 22 23 24 24 23 21 18 22 25 19 20 22 20 21 20 19 18 18 17 15 12 12 11 10 10
13 13 13 14 13 15 15 15 15 16 16 17 18 17 18 18 16 13 16 18 18 18 18 20 19 19 23 22 25 20 21 21 21 22 20 19 19 17 16 16 15 11 11 12
17 18 19 18 19 18 17 17 16 18 17 18 20 19 16 14 13 15 17 17 17 17 18 15 19 22 19 20 23 26 23 23 20 23 23 21 20 19 18 17 16 14 12 13
15 18 20 20 20 17 17 17 18 19 20 20 21 21 16 17 17 18 18 20 18 18 18 16 17 21 20 19 22 26 24 27 25 24 26 24 22 21 20 19 19 18 16 14
13 10 14 16 17 19 20 22 25 26 26 25 25 24 20 21 21 18 20 21 22 18 17 19 17 19 25 22 25 24 28 28 28 29 27 28 27 25 24 23 22 22 20 18
13 14 13 15 18 21 23 24 26 28 31 34 31 29 27 26 24 23 21 20 24 22 19 19 18 20 24 25 28 28 29 33 32 32 31 29 29 28 27 26 24 24 23 22
12 13 14 16 18 18 20 24 28 30 34 34 31 30 26 28 26 26 23 22 24 25 22 21 21 19 23 27 26 27 31 37 36 34 33 32 31 30 29 28 25 25 25 25
16 15 16 16 18 20 23 24 30 29 27 28 31 26 28 27 26 27 24 22 25 25 27 20 23 20 21 25 26 27 35 38 38 38 37 32 31 29 29 27 26 26 27 28
18 17 19 18 20 21 18 20 22 21 22 25 25 24 24 23 24 23 21 18 22 25 27 21 21 20 13 20 22 26 33 36 38 37 32 31 32 29 26 28 29 28 27 29
14 16 17 18 18 20 16 15 19 19 21 26 22 22 23 22 23 22 20 18 21 25 25 23 20 21 17 16 23 27 30 30 35 37 37 37 32 31 32 33 33 36 32 33
16 17 16 16 17 19 13 16 21 22 17 25 20 20 21 21 20 22 23 22 23 24 22 19 21 21 14 16 19 25 26 28 39 36 37 34 38 32 37 33 32 29 34 33
19 16 17 16 19 18 15 19 23 23 19 21 17 14 15 17 18 20 22 23 24 22 22 20 20 19 14 8 13 17 18 17 32 34 30 29 43 35 31 36 37 36 36 34
17 17 21 21 22 18 17 17 18 18 18 19 14 13 14 17 13 17 22 21 20 19 23 19 19 15 11 16 18 21 20 19 21 23 22 25 29 33 36 31 35 34 36 37
18 22 21 19 20 21 15 14 15 12 13 15 13 13 13 16 21 18 18 18 17 18 16 20 24 13 12 5 10 23 17 19 23 23 21 27 20 21 21 28 30 33 34 42
18 19 17 15 19 15 13 13 10 10 13 13 10 10 11 12 20 19 21 20 22 20 20 13 24 15 21 13 6 21 12 7 10 16 14 23 24 28 25 19 19 21 25 29
14 11 10 12 16 14 11 9 7 8 9 10 10 10 12 16 11 16 18 21 14 19 20 17 14 16 11 13 14 11 13 12 10 12 12 12 16 16 15 22 23 29 28 30
12 11 7 8 12 13 11 12 9 10 9 8 8 13 16 12 12 15 16 18 16 19 22 17 14 17 13 13 14 11 13 11 13 12 12 15 18 18 22 26 30 28 30 32
12 12 9 12 12 12 11 11 8 6 7 8 7 9 10 11 9 12 8 20 19 20 18 12 11 11 10 7 7 9 9 9 8 11 12 11 12 13 15 17 17 18 20 22
Wind_Direction
190 196 200 207 198 194 195 197 195 166 162 158 156 155 184 199 188 213 218 189 51 180 178 172 170 140 124 127 147 157 162 173 177 162 169 172 169 177 172 177 170 153 159 158
205 198 212 212 199 192 197 193 198 199 239 255 200 185 182 209 204 198 243 216 190 177 195 180 176 152 142 143 152 160 158 174 175 165 169 177 185 181 174 158 173 171 183 163
210 218 215 204 206 210 212 223 221 235 242 259 260 234 205 206 209 234 248 207 213 236 215 201 187 171 159 156 159 163 172 165 167 176 174 176 180 178 178 169 170 189 190 191
216 226 230 211 209 220 222 229 236 233 227 245 260 257 238 227 225 200 221 232 230 227 218 204 195 196 177 172 174 171 173 174 173 176 186 195 190 178 181 187 195 192 189 184
205 214 227 211 212 219 221 225 230 241 250 252 253 254 252 243 246 250 230 247 247 236 245 228 197 199 188 186 188 180 184 178 182 182 188 198 199 187 180 186 185 195 196 181
193 202 191 189 205 216 221 230 237 249 247 241 250 237 250 254 250 261 268 249 283 240 229 238 236 220 200 194 194 198 192 190 190 186 193 195 196 192 176 184 193 199 216 206
200 187 204 207 207 213 229 252 268 265 254 237 244 240 233 251 260 264 267 268 249 277 247 250 254 252 227 210 203 203 201 196 189 189 197 199 191 201 205 200 212 209 211 220
188 200 217 225 225 233 256 276 284 276 259 234 239 246 241 249 257 260 263 265 268 265 263 263 269 256 228 236 215 210 203 210 209 199 205 206 203 210 216 212 223 227 218 226
184 203 232 249 251 246 267 283 284 287 268 248 246 254 252 257 266 258 254 262 264 268 268 261 275 260 266 230 228 222 215 211 220 217 205 206 212 207 217 230 235 228 242 227
205 216 232 243 243 245 257 268 274 287 284 278 276 268 267 263 267 256 259 265 263 265 262 266 261 246 240 226 218 237 234 216 220 223 217 205 209 214 212 227 234 228 241 235
222 234 232 248 250 253 259 271 271 281 284 283 281 280 278 274 263 263 256 262 252 254 255 258 256 247 242 234 228 230 232 230 226 225 216 207 211 213 217 227 244 244 242 232
223 240 244 246 255 259 262 267 270 272 274 274 276 277 282 278 264 256 255 259 255 252 246 248 237 242 242 240 232 222 229 226 226 229 227 218 213 216 216 221 231 238 240 240
255 250 235 240 247 264 269 272 274 277 278 273 269 271 269 264 265 258 257 255 260 257 254 243 244 241 234 245 230 232 227 230 232 225 223 226 222 220 222 224 223 225 233 236
269 264 262 246 253 255 255 261 265 269 272 274 273 273 269 264 261 259 254 251 249 255 257 252 241 245 241 248 228 231 232 232 234 224 224 229 224 225 226 226 229 232 232 235
270 252 259 263 272 279 272 268 268 272 276 275 279 274 268 262 260 257 258 251 243 247 249 250 239 245 232 236 238 236 230 224 227 223 221 226 227 229 231 232 232 237 243 245
254 252 262 268 274 278 279 281 274 281 279 277 277 279 264 258 254 253 249 248 239 244 239 250 244 241 240 235 244 248 226 220 227 226 228 231 226 226 231 233 236 237 242 244
252 257 258 267 277 284 290 279 283 279 282 281 281 276 261 255 250 239 237 249 243 244 238 248 252 240 251 234 236 222 215 223 220 221 225 235 244 233 233 235 242 242 242 247
265 266 272 282 289 288 292 284 280 282 280 282 286 276 264 248 242 233 238 248 242 237 233 249 245 234 242 232 229 221 217 231 223 229 235 237 235 239 239 241 249 252 243 245
259 266 274 285 289 293 299 280 277 275 264 276 291 284 253 244 235 239 249 250 237 232 234 245 242 227 227 239 229 230 240 236 231 234 232 233 244 240 248 236 242 249 242 242
257 260 274 295 303 302 297 278 281 278 268 270 280 271 248 242 246 253 256 242 238 238 230 235 238 219 223 243 232 210 218 224 216 227 229 236 238 242 246 243 249 247 250 249
252 266 284 296 302 297 291 288 285 269 272 267 271 256 253 244 252 251 248 242 241 235 227 235 233 238 235 222 239 222 212 217 214 223 226 227 239 240 240 247 250 245 246 245
263 275 281 281 284 291 283 286 277 260 264 263 272 284 276 250 260 252 239 228 220 230 219 218 213 208 210 178 226 211 222 225 232 204 209 227 228 225 235 236 237 239 245 236
263 282 268 267 278 283 270 288 257 261 258 268 269 270 284 300 279 249 230 231 229 208 207 183 195 191 216 203 209 202 185 182 157 190 211 212 228 234 233 233 237 241 230 235
268 248 246 267 269 271 266 278 269 256 254 292 271 282 314 313 269 244 245 241 225 213 222 179 185 199 185 188 170 194 177 173 191 201 199 196 207 203 226 242 237 237 236 233
233 231 229 280 282 276 272 264 267 252 280 297 261 278 302 313 319 330 242 249 235 190 154 155 151 159 166 166 179 175 169 190 194 202 200 204 212 222 221 226 227 227 231 232
220 208 223 255 290 286 270 261 259 250 285 303 305 298 301 305 327 352 82 143 175 192 143 149 165 179 184 199 205 229 227 235 230 235 245 245 247 250 255 256 257 257 257 253